When you browse on this site, cookies collect data to enhance your experience and personalize the content and advertising you see.
Visit our Privacy Policy to learn more. By continuing to use the site, you agree to this use of cookies and data.
  • In Lithuania
  • List of Countries
  • For 7 days
  • Water Temperature
  • Weather Map
  • Weather Widgets
  • user-avatar
    Login

    Hourly Weather Bolshaya Volga

    Today, 21 August, Wednesday

    Time Temperature Precipitation Wind Pressure Humidity
    00:00 +18°C° 0 mm 1 mps 755 mmHg 97%
    01:00 +18°C° 0 mm 1 mps 755 mmHg 97%
    02:00 +18°C° 0 mm 1 mps 756 mmHg 97%
    03:00 +18°C° 0 mm 1 mps 756 mmHg 97%
    04:00 +18°C° 0 mm 1 mps 756 mmHg 98%
    05:00 +18°C° 0 mm 1 mps 756 mmHg 98%
    06:00 +19°C° 0 mm 1 mps 757 mmHg 95%
    07:00 +20°C° 0 mm 1 mps 757 mmHg 92%
    08:00 +21°C° 0 mm 1 mps 757 mmHg 89%
    09:00 +22°C° 0 mm 1 mps 757 mmHg 82%
    10:00 +24°C° 0 mm 1 mps 757 mmHg 75%
    11:00 +26°C° 0 mm 1 mps 757 mmHg 68%
    12:00 +26°C° 0 mm 1 mps 757 mmHg 67%
    13:00 +26°C° 0 mm 1 mps 757 mmHg 66%
    14:00 +26°C° 0 mm 1 mps 756 mmHg 65%
    15:00 +26°C° 0 mm 1 mps 756 mmHg 68%
    16:00 +25°C° 0 mm 1 mps 756 mmHg 72%
    17:00 +25°C° 0 mm 2 mps 755 mmHg 76%
    18:00 +23°C° 0 mm 2 mps 755 mmHg 81%
    19:00 +21°C° 0 mm 2 mps 755 mmHg 86%
    20:00 +20°C° 0 mm 2 mps 754 mmHg 91%
    21:00 +20°C° 0.2 mm 2 mps 754 mmHg 91%
    22:00 +19°C° 0.2 mm 3 mps 753 mmHg 91%
    23:00 +19°C° 0.2 mm 3 mps 753 mmHg 91%

    Tomorrow, 22 August, Thursday

    Time Temperature Precipitation Wind Pressure Humidity
    00:00 +19°C° 0.2 mm 3 mps 753 mmHg 93%
    01:00 +19°C° 0.2 mm 3 mps 753 mmHg 94%
    02:00 +19°C° 0.2 mm 3 mps 752 mmHg 95%
    03:00 +19°C° 0.2 mm 3 mps 752 mmHg 96%
    04:00 +19°C° 0.2 mm 3 mps 752 mmHg 96%
    05:00 +19°C° 0.2 mm 3 mps 752 mmHg 96%
    06:00 +20°C° 0.1 mm 3 mps 752 mmHg 94%
    07:00 +20°C° 0.1 mm 4 mps 752 mmHg 92%
    08:00 +21°C° 0.1 mm 4 mps 753 mmHg 89%
    09:00 +20°C° 0.4 mm 4 mps 753 mmHg 90%
    10:00 +18°C° 0.4 mm 4 mps 753 mmHg 91%
    11:00 +17°C° 0.4 mm 4 mps 754 mmHg 92%
    12:00 +17°C° 0.3 mm 4 mps 754 mmHg 88%
    13:00 +18°C° 0.3 mm 4 mps 754 mmHg 85%
    14:00 +18°C° 0.3 mm 3 mps 755 mmHg 81%
    15:00 +19°C° 0 mm 3 mps 755 mmHg 79%
    16:00 +19°C° 0 mm 2 mps 755 mmHg 76%
    17:00 +20°C° 0 mm 2 mps 755 mmHg 73%
    18:00 +18°C° 0 mm 2 mps 756 mmHg 78%
    19:00 +17°C° 0 mm 2 mps 756 mmHg 83%
    20:00 +15°C° 0 mm 2 mps 756 mmHg 88%
    21:00 +14°C° 0 mm 2 mps 757 mmHg 88%
    22:00 +14°C° 0 mm 2 mps 757 mmHg 89%
    23:00 +13°C° 0 mm 2 mps 757 mmHg 89%

    Day after tomorrow, 23 August, Friday

    Time Temperature Precipitation Wind Pressure Humidity
    00:00 +12°C° 0 mm 2 mps 757 mmHg 90%
    01:00 +12°C° 0 mm 1 mps 757 mmHg 91%
    02:00 +12°C° 0 mm 1 mps 758 mmHg 92%
    03:00 +12°C° 0 mm 1 mps 758 mmHg 93%
    04:00 +12°C° 0 mm 1 mps 758 mmHg 93%
    05:00 +12°C° 0 mm 1 mps 758 mmHg 94%
    06:00 +14°C° 0 mm 1 mps 758 mmHg 86%
    07:00 +16°C° 0 mm 1 mps 758 mmHg 79%
    08:00 +19°C° 0 mm 1 mps 758 mmHg 71%
    09:00 +19°C° 0 mm 2 mps 758 mmHg 66%
    10:00 +20°C° 0 mm 2 mps 758 mmHg 62%
    11:00 +22°C° 0 mm 3 mps 758 mmHg 57%
    12:00 +22°C° 0 mm 3 mps 758 mmHg 55%
    13:00 +22°C° 0 mm 3 mps 758 mmHg 54%
    14:00 +22°C° 0 mm 3 mps 758 mmHg 52%
    15:00 +22°C° 0 mm 3 mps 758 mmHg 56%
    16:00 +21°C° 0 mm 2 mps 758 mmHg 60%
    17:00 +20°C° 0 mm 2 mps 758 mmHg 63%
    18:00 +19°C° 0 mm 1 mps 758 mmHg 68%
    19:00 +18°C° 0 mm 1 mps 758 mmHg 73%
    20:00 +15°C° 0 mm 1 mps 758 mmHg 77%
    21:00 +14°C° 0 mm 1 mps 758 mmHg 80%
    22:00 +13°C° 0 mm 1 mps 758 mmHg 82%
    23:00 +13°C° 0 mm 1 mps 758 mmHg 85%

    24 August, Saturday

    Time Temperature Precipitation Wind Pressure Humidity
    00:00 +13°C° 0 mm 1 mps 758 mmHg 86%
    01:00 +12°C° 0 mm 1 mps 758 mmHg 88%
    02:00 +12°C° 0 mm 1 mps 758 mmHg 89%
    03:00 +12°C° 0 mm 1 mps 758 mmHg 89%
    04:00 +12°C° 0 mm 1 mps 758 mmHg 89%
    05:00 +12°C° 0 mm 2 mps 758 mmHg 89%
    06:00 +14°C° 0 mm 2 mps 758 mmHg 83%
    07:00 +16°C° 0 mm 2 mps 758 mmHg 78%
    08:00 +18°C° 0 mm 2 mps 758 mmHg 72%
    09:00 +19°C° 0 mm 3 mps 757 mmHg 66%
    10:00 +21°C° 0 mm 3 mps 757 mmHg 59%
    11:00 +22°C° 0 mm 3 mps 757 mmHg 53%
    12:00 +23°C° 0 mm 4 mps 757 mmHg 53%
    13:00 +23°C° 0 mm 4 mps 756 mmHg 52%
    14:00 +23°C° 0 mm 4 mps 756 mmHg 52%
    15:00 +24°C° 0 mm 3 mps 755 mmHg 57%
    16:00 +22°C° 0 mm 3 mps 755 mmHg 62%
    17:00 +22°C° 0 mm 3 mps 754 mmHg 67%
    18:00 +20°C° 0 mm 3 mps 754 mmHg 73%
    19:00 +18°C° 0 mm 3 mps 754 mmHg 78%
    20:00 +17°C° 0 mm 3 mps 754 mmHg 83%
    21:00 +16°C° 0 mm 3 mps 754 mmHg 84%
    22:00 +16°C° 0 mm 3 mps 754 mmHg 85%
    23:00 +16°C° 0 mm 3 mps 754 mmHg 87%

    25 August, Sunday

    Time Temperature Precipitation Wind Pressure Humidity
    00:00 +14°C° 0 mm 3 mps 754 mmHg 88%
    01:00 +14°C° 0 mm 3 mps 753 mmHg 90%
    02:00 +13°C° 0 mm 3 mps 753 mmHg 92%
    03:00 +13°C° 0 mm 3 mps 753 mmHg 92%
    04:00 +13°C° 0 mm 3 mps 753 mmHg 93%
    05:00 +13°C° 0 mm 3 mps 753 mmHg 94%
    06:00 +14°C° 0 mm 3 mps 753 mmHg 90%
    07:00 +16°C° 0 mm 3 mps 753 mmHg 85%
    08:00 +18°C° 0 mm 3 mps 754 mmHg 81%
    09:00 +19°C° 0 mm 3 mps 754 mmHg 72%
    10:00 +20°C° 0 mm 4 mps 754 mmHg 63%
    11:00 +21°C° 0 mm 4 mps 754 mmHg 54%
    12:00 +21°C° 0 mm 4 mps 754 mmHg 53%
    13:00 +21°C° 0 mm 4 mps 755 mmHg 53%
    14:00 +21°C° 0 mm 5 mps 755 mmHg 52%
    15:00 +20°C° 0 mm 4 mps 755 mmHg 57%
    16:00 +19°C° 0 mm 4 mps 755 mmHg 62%
    17:00 +18°C° 0 mm 4 mps 756 mmHg 67%
    18:00 +17°C° 0 mm 3 mps 756 mmHg 75%
    19:00 +15°C° 0 mm 2 mps 756 mmHg 82%
    20:00 +13°C° 0 mm 2 mps 757 mmHg 90%
    21:00 +12°C° 0 mm 2 mps 757 mmHg 91%
    22:00 +12°C° 0 mm 1 mps 758 mmHg 93%
    23:00 +11°C° 0 mm 1 mps 758 mmHg 95%

    26 August, Monday

    Time Temperature Precipitation Wind Pressure Humidity
    00:00 +10°C° 0 mm 1 mps 758 mmHg 95%
    01:00 +10°C° 0 mm 1 mps 759 mmHg 95%
    02:00 +10°C° 0 mm 1 mps 759 mmHg 95%
    03:00 +9°C° 0 mm 1 mps 759 mmHg 95%
    04:00 +9°C° 0 mm 1 mps 759 mmHg 95%
    05:00 +9°C° 0 mm 1 mps 759 mmHg 95%
    06:00 +11°C° 0 mm 1 mps 760 mmHg 86%
    07:00 +13°C° 0 mm 1 mps 760 mmHg 77%
    08:00 +14°C° 0 mm 0 mps 760 mmHg 68%
    09:00 +16°C° 0 mm 0 mps 760 mmHg 62%
    10:00 +17°C° 0 mm 0 mps 760 mmHg 57%
    11:00 +19°C° 0 mm 0 mps 760 mmHg 51%
    12:00 +21°C° 0 mm 1 mps 760 mmHg 49%
    13:00 +21°C° 0 mm 1 mps 759 mmHg 48%
    14:00 +21°C° 0 mm 1 mps 759 mmHg 46%
    15:00 +21°C° 0 mm 1 mps 759 mmHg 51%
    16:00 +20°C° 0 mm 1 mps 758 mmHg 57%
    17:00 +20°C° 0 mm 1 mps 758 mmHg 62%
    18:00 +18°C° 0 mm 1 mps 758 mmHg 68%
    19:00 +15°C° 0 mm 1 mps 758 mmHg 73%
    20:00 +13°C° 0 mm 1 mps 758 mmHg 78%
    21:00 +13°C° 0 mm 1 mps 758 mmHg 80%
    22:00 +12°C° 0 mm 1 mps 758 mmHg 82%
    23:00 +12°C° 0 mm 1 mps 758 mmHg 83%
    Show more